Theta_e
319 317 318 321 318 313 316 317 317 318 319 319 318 319 323 330 341 343 338 333 326 323 325 322 322 325 327 327 327 328 330 332 334 333 333 334 333 332 329 328 324 319 315 314 314 312 312 312 312
320 321 319 314 316 316 314 315 318 317 318 317 318 320 328 336 339 342 340 330 326 321 324 319 319 321 322 324 323 325 328 329 330 330 330 330 330 329 326 324 320 315 314 314 312 312 314 315 315
324 324 316 318 314 316 316 317 319 318 317 318 318 321 334 341 340 341 340 331 326 321 324 318 317 318 319 321 321 322 325 326 327 328 329 328 328 327 325 323 318 315 314 313 313 314 315 317 320
325 324 319 323 321 316 317 317 316 317 318 318 319 320 335 338 340 341 338 334 325 321 325 318 317 317 318 319 319 320 321 322 324 325 326 326 325 324 324 321 317 314 314 313 313 315 316 319 322
329 322 326 320 320 318 318 317 317 317 317 317 318 320 338 336 339 342 339 331 322 323 324 317 317 317 318 318 319 319 320 321 320 322 323 323 322 323 323 321 317 315 314 313 314 316 317 321 322
328 320 324 326 320 322 321 320 319 317 318 319 319 321 337 339 342 341 337 328 323 322 320 318 317 317 317 318 319 319 320 320 320 321 322 322 321 321 322 322 318 315 314 314 315 316 319 321 324
329 320 324 323 324 324 322 320 321 321 321 322 320 324 333 342 343 339 334 332 329 326 321 318 317 316 316 317 318 319 319 320 320 320 320 322 320 320 322 321 319 316 314 314 315 318 321 321 324
325 327 330 325 325 324 325 325 322 324 325 322 320 322 326 334 343 336 334 333 331 329 323 319 317 316 316 316 317 318 319 319 319 319 319 319 320 321 323 321 321 317 315 314 314 319 323 324 325
320 329 332 330 328 327 325 325 325 325 325 324 322 322 323 340 342 338 335 333 332 329 325 319 317 317 317 318 319 317 317 318 318 318 319 319 320 324 325 322 321 318 316 314 314 317 321 326 326
316 321 328 328 327 327 326 325 324 325 324 324 324 324 324 335 339 339 337 336 336 333 327 320 318 318 317 319 321 320 318 319 318 318 319 320 320 323 322 323 322 319 316 315 314 314 320 326 327
313 319 322 323 322 323 323 323 322 323 323 323 323 323 323 323 329 334 335 340 338 336 334 328 322 318 318 319 319 317 318 317 318 318 318 319 320 323 323 323 321 318 317 316 315 315 319 322 325
311 312 316 317 318 319 319 320 320 321 321 322 322 322 322 322 321 322 328 337 343 340 337 331 325 320 319 320 319 318 317 318 316 316 316 318 319 320 320 319 319 318 318 316 316 318 318 321 322
310 310 311 312 312 313 317 319 320 320 320 321 321 322 322 322 322 323 329 332 340 345 341 335 326 323 322 322 321 321 322 318 317 316 316 317 318 319 319 318 319 321 320 318 318 320 320 321 322
308 309 309 309 310 310 313 314 314 316 316 316 316 318 322 322 322 328 334 334 339 341 344 341 337 327 326 324 323 321 322 320 320 319 318 318 320 321 320 319 320 322 321 319 319 321 323 324 325
309 308 307 308 309 311 314 314 315 316 316 316 317 318 320 322 322 324 333 335 336 341 343 343 341 336 328 323 322 321 321 321 321 322 321 320 321 324 322 322 322 322 322 322 323 324 327 330 330
308 305 306 307 309 309 312 314 315 313 314 315 315 316 317 319 321 323 323 335 338 341 344 345 345 343 339 335 331 330 330 336 338 332 326 328 334 333 334 332 333 333 332 330 328 327 330 331 332
306 307 308 308 308 309 311 310 310 310 311 311 311 312 314 314 316 321 323 326 334 339 342 345 348 346 343 341 338 336 337 340 341 340 340 339 340 341 341 341 341 340 339 336 333 331 331 333 333
310 309 309 310 310 309 309 310 310 310 311 311 310 311 311 312 313 314 317 322 327 337 339 341 344 347 345 344 344 343 342 341 342 343 342 342 342 343 343 343 343 342 340 338 336 334 332 333 334
309 310 309 309 310 309 308 310 310 309 309 308 309 310 310 311 312 313 315 317 320 325 334 342 341 343 341 341 341 345 344 344 344 345 346 345 345 345 345 346 346 343 341 340 340 335 334 334 334
308 308 310 309 311 311 310 310 310 309 309 309 308 309 309 310 311 312 313 315 317 320 324 329 331 336 338 337 340 341 343 345 345 346 348 348 348 348 349 348 346 344 342 340 339 337 335 335 335
311 312 313 312 312 310 309 310 309 309 309 309 309 308 308 308 309 310 311 312 314 315 318 323 327 329 332 336 340 343 345 345 346 346 344 343 339 343 345 345 344 341 343 342 341 338 337 335 336
311 312 313 312 311 311 310 311 309 309 309 309 308 308 307 307 308 308 308 309 310 312 314 316 322 327 331 335 341 344 343 344 344 343 341 340 340 340 343 343 339 339 343 343 343 341 339 337 335
310 312 311 311 310 309 310 309 308 308 308 308 307 310 313 312 311 311 312 313 314 314 313 314 317 325 330 335 342 343 343 341 342 340 339 339 338 340 338 338 339 342 344 346 344 342 341 339 337
311 310 307 307 308 310 309 309 308 307 308 308 312 314 313 312 312 312 312 314 315 316 317 317 315 320 328 332 335 342 341 339 339 335 335 332 333 333 334 340 343 345 347 346 344 345 343 341 339
307 306 308 308 307 310 308 310 310 309 310 313 313 313 312 311 310 310 311 313 315 316 316 316 315 319 328 333 336 339 339 337 337 335 331 331 334 336 341 344 346 347 347 346 345 344 344 340 338
309 307 308 311 311 308 308 310 310 312 313 313 314 312 312 311 308 308 310 311 314 315 316 315 315 318 327 333 334 336 336 335 334 333 331 331 331 335 339 347 348 347 346 345 344 344 342 339 337
309 310 307 309 309 309 309 310 311 311 313 313 312 311 310 309 309 309 309 311 313 315 316 313 321 317 321 331 333 334 335 334 332 331 331 331 334 337 345 348 347 346 345 343 343 341 341 340 338
307 307 308 307 313 314 310 312 312 310 310 313 312 310 309 309 308 309 310 311 313 316 314 320 326 323 319 327 331 331 331 331 332 332 333 335 337 343 347 347 346 345 343 343 341 340 341 340 337
308 310 311 308 310 309 310 311 310 312 313 313 311 310 309 308 309 310 310 311 313 315 314 318 321 331 318 324 330 330 331 331 332 334 336 338 342 345 346 346 344 342 342 342 341 341 340 338 338
309 309 310 305 306 314 312 312 310 309 308 310 310 311 310 309 309 310 311 311 313 311 314 315 318 331 331 319 323 326 328 333 335 337 338 340 344 346 346 344 342 341 341 342 341 339 338 337 336
Wind_Speed
9 4 1 3 3 4 3 7 3 7 9 1 4 4 12 12 9 7 5 39 37 45 45 40 37 35 33 32 32 31 29 27 26 25 24 22 21 20 18 17 15 13 12 10 9 9 8 7 7
8 1 4 2 4 1 5 5 4 6 6 11 11 6 5 10 6 5 14 38 42 49 47 44 40 37 35 34 33 31 29 28 27 25 24 22 21 19 18 16 14 12 11 10 9 9 8 7 7
5 1 3 3 4 6 5 3 2 9 9 6 7 5 5 5 2 13 14 39 48 50 47 46 42 39 37 35 33 32 30 28 26 24 23 21 20 18 17 15 13 11 10 9 8 8 8 8 7
2 4 4 3 11 5 5 4 5 12 11 1 4 14 6 3 8 19 41 45 51 49 47 45 43 40 38 36 34 32 30 28 26 24 22 21 19 17 16 14 13 12 10 10 9 8 8 8 6
0 2 2 3 11 4 3 3 5 8 7 10 7 7 5 5 3 24 46 49 55 51 46 44 42 41 39 37 35 33 31 29 27 24 22 21 19 18 17 16 14 12 11 11 10 10 10 9 7
2 3 2 7 17 3 3 3 3 4 7 13 9 9 5 3 14 33 45 52 55 56 50 45 41 40 39 37 36 34 32 30 27 25 23 22 20 19 18 17 15 14 12 11 11 11 11 10 9
4 3 5 5 10 5 2 3 2 5 7 8 7 6 7 2 1 13 19 29 42 47 49 46 43 41 39 38 37 35 33 31 28 26 24 23 21 20 20 18 17 15 14 14 13 13 12 12 11
3 4 3 5 11 5 2 2 3 4 11 7 5 5 11 3 14 14 16 25 33 39 44 45 44 42 40 39 37 36 34 32 30 28 26 24 22 22 21 20 19 17 16 15 15 15 14 14 13
2 3 6 6 8 1 7 7 3 3 7 6 6 6 12 11 21 19 17 17 28 34 40 43 43 42 40 39 38 35 33 32 29 27 26 25 25 25 24 22 21 20 18 17 17 17 17 16 15
4 5 8 5 5 8 16 5 11 7 12 12 6 9 19 9 10 2 13 16 20 31 41 45 45 43 41 37 35 34 33 32 30 30 29 28 28 27 25 24 23 22 20 19 19 19 20 19 19
3 8 4 4 2 3 12 14 9 10 19 6 11 11 9 4 1 9 6 7 12 14 29 42 44 43 41 39 37 35 34 34 32 32 29 30 29 28 27 25 25 24 23 22 22 22 23 23 22
4 5 3 3 4 6 15 16 16 18 24 14 9 8 6 7 6 6 12 18 15 16 24 37 42 43 42 40 39 38 38 36 34 33 32 32 31 30 30 28 27 27 26 25 25 25 25 25 24
4 4 5 6 5 7 11 16 16 26 24 14 13 8 9 8 6 9 15 19 27 21 30 36 42 43 44 42 39 38 38 37 35 34 34 34 34 33 30 29 28 30 27 26 27 28 27 27 26
2 2 5 4 5 4 7 11 5 27 6 13 14 10 9 10 6 4 11 12 24 34 31 37 41 44 43 42 41 39 36 34 35 36 36 34 35 34 31 29 30 31 29 27 28 29 27 28 27
3 6 5 5 5 7 6 13 22 21 9 11 8 10 7 11 8 10 19 19 21 29 36 41 44 43 42 43 45 37 41 38 34 37 36 35 33 35 31 29 29 31 30 26 28 27 25 26 26
2 4 2 5 2 6 10 23 2 6 7 12 12 7 11 6 9 13 17 23 24 27 31 37 39 38 40 44 46 43 42 32 29 33 35 34 29 32 28 28 28 28 27 24 27 27 26 27 26
5 1 2 6 4 4 7 3 7 8 8 10 10 10 7 13 7 12 13 20 26 29 31 31 38 41 44 45 44 44 40 29 31 34 33 37 30 31 30 29 28 28 26 25 26 27 28 27 27
3 1 3 4 5 6 12 9 5 7 6 8 8 10 11 13 11 8 11 20 25 32 31 33 34 40 44 43 39 36 34 31 31 34 37 37 30 31 30 29 29 29 26 26 26 28 28 25 25
4 2 2 4 5 5 7 15 9 7 6 8 9 8 10 11 9 18 21 16 18 25 32 39 37 40 40 39 35 30 30 33 36 40 40 34 27 29 29 29 29 29 29 28 25 29 26 23 23
4 1 1 4 5 7 10 22 10 3 5 5 8 8 8 10 12 12 19 18 14 22 29 36 41 47 47 37 34 26 25 29 38 42 41 30 26 30 31 31 31 30 29 26 27 29 21 23 23
1 3 2 3 6 5 7 18 12 3 3 6 7 7 8 8 12 14 12 21 23 21 22 29 39 41 42 46 34 28 24 21 24 31 30 32 29 34 35 33 32 31 29 28 30 28 26 18 21
2 1 1 5 6 3 5 12 5 8 10 4 8 8 10 11 10 9 11 13 24 25 25 26 31 41 44 45 39 34 32 26 32 36 38 34 33 34 33 34 34 34 32 28 28 28 27 22 15
4 2 3 3 4 2 2 4 3 14 13 16 11 6 5 8 8 10 11 17 27 30 31 30 29 31 41 41 39 39 34 31 31 33 30 30 29 31 30 29 30 35 32 24 25 24 25 26 19
3 2 5 4 2 1 7 5 4 2 2 8 5 8 8 8 10 11 14 19 21 28 31 33 29 31 33 41 46 38 35 35 31 28 29 28 27 25 25 28 31 30 27 22 24 23 24 24 22
5 5 4 4 2 5 3 5 11 16 16 5 9 9 10 10 9 9 11 13 19 23 28 29 26 29 31 38 38 42 38 37 37 40 36 32 25 21 24 22 25 26 24 23 21 21 22 21 20
4 6 5 5 3 13 6 7 7 6 7 8 8 10 10 13 9 9 11 12 18 21 27 26 29 30 28 34 38 42 43 40 41 43 39 33 26 25 22 21 24 23 21 18 19 19 19 20 19
2 4 5 4 1 1 5 8 10 18 9 10 8 9 11 12 13 11 11 10 19 20 26 28 28 30 31 34 39 40 41 40 40 38 33 28 25 24 23 24 24 22 21 19 20 18 19 18 18
5 4 1 2 3 4 5 5 9 12 13 9 11 10 12 13 12 14 12 12 19 21 27 28 29 26 33 38 41 43 42 39 36 30 26 26 24 26 26 25 24 23 21 21 20 17 17 18 16
2 1 3 2 3 4 3 7 6 8 10 12 14 14 11 13 14 13 14 17 22 23 25 27 24 24 27 34 40 38 36 34 30 26 26 27 27 28 28 27 25 22 21 21 17 16 18 18 16
5 5 5 4 5 5 3 14 5 15 11 10 15 18 13 13 12 11 14 12 21 20 22 22 22 21 20 31 35 37 35 28 25 28 27 28 28 28 28 28 23 22 23 20 19 19 17 17 16
Wind_Direction
322 331 61 51 57 63 248 251 260 322 336 279 283 189 223 220 184 211 184 166 175 169 166 164 164 166 164 160 156 155 154 154 152 151 150 151 151 150 152 153 152 150 151 148 148 145 145 144 144
327 115 66 81 98 223 259 243 278 261 260 290 291 281 254 233 182 131 132 164 172 168 167 164 166 168 167 165 160 160 160 160 159 158 157 158 159 159 159 162 158 157 156 156 160 157 155 151 147
325 17 88 112 148 215 221 221 20 285 267 275 294 282 259 220 118 171 177 166 170 169 170 164 168 170 170 168 166 165 166 167 166 165 166 166 166 167 167 170 168 169 168 172 174 174 169 166 163
280 3 41 98 243 254 224 322 330 330 323 106 298 303 286 263 162 178 163 167 170 172 173 168 169 173 173 173 171 171 171 173 173 173 174 174 174 176 176 180 180 181 181 186 191 193 188 185 178
210 44 100 241 262 249 253 261 298 303 288 302 312 275 261 2 188 165 166 170 171 173 174 172 173 175 177 177 176 176 177 178 180 183 182 183 184 186 188 192 190 194 196 199 205 205 203 197 196
94 107 95 230 250 269 274 235 268 268 294 303 331 305 262 323 162 169 171 173 176 172 172 174 178 179 182 183 182 182 182 184 185 189 192 194 195 197 198 201 201 203 207 212 217 215 216 214 213
140 114 213 264 264 281 244 201 247 273 306 295 310 303 303 75 29 159 161 166 173 174 172 174 180 183 187 189 189 187 187 189 191 196 200 202 206 207 208 211 212 213 217 220 227 224 221 225 226
156 131 227 237 257 282 203 326 305 314 296 300 360 1 329 331 136 148 163 167 173 174 175 177 183 186 190 193 195 193 193 195 197 202 205 209 213 217 217 219 222 223 225 229 233 234 232 231 234
122 179 210 227 251 274 317 3 187 293 294 333 311 18 308 124 138 146 148 165 173 177 180 182 186 190 195 197 198 199 200 200 202 206 210 213 216 220 221 225 230 231 231 235 239 240 243 239 241
179 197 215 204 235 318 296 286 309 326 321 300 318 328 4 75 99 84 162 180 188 185 188 187 190 193 197 201 204 204 203 204 205 209 211 215 220 223 227 230 233 239 239 240 242 245 246 244 245
209 237 193 258 0 332 295 296 310 307 291 272 304 309 336 351 181 176 222 220 240 228 189 192 193 197 200 203 206 208 209 210 210 214 218 224 224 225 228 231 235 238 240 240 243 242 243 245 248
249 221 171 282 278 271 272 298 289 291 269 287 287 277 293 297 293 244 195 202 216 216 218 199 199 200 202 207 210 210 212 214 215 219 221 226 228 227 229 233 236 238 238 243 245 245 246 247 249
231 286 291 285 282 266 272 272 274 274 278 286 277 272 264 266 272 280 269 216 196 210 217 215 205 206 206 209 213 216 219 219 222 224 227 230 233 234 232 237 239 242 241 246 249 249 250 250 251
311 267 274 274 260 240 260 271 252 266 305 285 281 277 235 251 218 191 247 243 197 208 214 218 216 211 211 212 216 219 226 226 233 235 234 236 240 241 240 241 246 246 246 248 251 252 254 254 254
298 335 343 217 219 227 221 261 240 268 307 289 276 295 253 246 228 196 217 231 228 219 215 214 217 214 213 214 222 222 231 227 237 244 245 244 246 248 248 246 246 251 250 249 252 251 254 256 256
349 48 28 283 274 254 179 249 281 359 338 310 318 302 300 271 248 252 224 217 225 225 219 221 217 215 215 216 219 220 220 216 237 244 249 245 245 249 250 247 247 249 252 248 246 247 246 249 253
7 179 219 308 276 273 190 321 346 333 347 315 319 331 344 330 329 288 265 227 219 219 222 223 217 214 214 217 218 219 221 223 227 233 243 244 242 247 246 247 250 249 249 244 243 245 242 242 247
268 295 272 254 298 334 304 295 298 298 310 299 311 317 320 317 304 293 305 270 242 220 221 224 224 221 218 217 218 226 228 227 233 241 242 240 241 243 242 248 252 250 245 240 240 240 239 239 246
268 256 235 266 335 349 282 299 315 277 294 291 300 302 308 305 302 313 320 321 287 248 239 221 224 223 221 217 222 230 236 238 236 240 241 239 241 243 248 251 250 248 245 243 241 234 233 236 241
228 192 324 275 329 333 310 297 299 262 253 271 290 301 292 302 313 315 316 318 315 282 248 237 234 235 229 230 228 227 231 232 233 237 238 243 241 246 248 248 249 249 246 244 236 230 222 236 233
97 124 322 277 313 288 314 292 297 231 280 283 280 288 301 278 294 305 308 308 311 307 294 262 248 238 238 232 226 222 229 229 228 232 239 241 245 244 246 247 248 251 247 242 236 230 221 208 220
337 118 356 328 11 311 56 291 252 272 289 279 271 267 279 309 319 314 317 316 314 305 299 291 265 249 238 230 217 215 219 220 231 238 241 241 240 241 244 248 250 248 241 236 237 230 227 213 196
239 349 327 299 294 9 254 284 110 324 289 278 296 352 311 301 302 302 300 302 303 309 310 306 295 261 244 230 220 216 221 223 226 233 238 236 239 237 241 245 241 233 230 232 229 220 223 217 213
60 34 16 30 46 314 230 207 326 230 317 318 291 292 297 293 287 294 292 295 298 311 309 306 297 287 262 234 228 217 219 216 213 222 225 229 232 238 245 240 233 226 222 217 216 220 223 217 218
65 51 346 339 359 241 275 272 264 299 299 297 282 289 285 280 273 279 298 305 310 310 313 307 296 286 261 234 224 217 219 218 220 225 229 228 225 231 236 232 223 215 209 209 214 221 224 212 215
228 156 162 254 240 283 277 253 255 236 232 256 253 265 275 286 279 272 282 293 296 294 305 310 294 275 255 230 221 221 217 217 221 229 232 231 232 234 238 217 206 202 200 208 216 214 204 210 212
199 176 208 233 108 345 228 268 291 265 237 264 262 251 266 280 292 289 285 276 281 290 301 301 299 275 258 234 222 219 219 220 225 230 232 233 227 231 217 202 197 199 199 202 200 198 206 203 202
161 190 1 9 284 252 262 259 252 275 278 282 288 289 291 293 294 299 294 281 287 296 302 300 308 283 251 241 226 224 225 225 229 231 227 224 219 218 202 195 197 195 199 199 197 198 204 195 196
307 242 91 131 169 224 288 261 221 255 273 277 284 281 276 287 295 299 305 298 287 293 298 297 306 305 249 236 229 223 229 233 230 229 224 216 209 204 195 191 191 194 194 194 191 189 186 190 195
185 227 158 133 260 224 226 270 229 259 285 296 281 284 284 279 284 298 303 297 287 281 293 298 308 298 269 235 232 225 230 225 217 215 213 206 202 198 193 190 189 189 190 185 185 181 187 195 201